Location: Champignolles
(47.0543°N, 4.5663°E)
Time: 05:22:57
(UTC+00:00)

N. Korean satellite - Pass Details

Date: 14 December 2021
Orbit: 447 x 491 km, 97.3° (Epoch: 25 January)

Event Time Altitude Azimuth Distance (km) Brightness Sun altitude
Rises 04:43:12 0° 17° (NNE) 2,462 10.3 -25.6°
Enters shadow 04:44:12 - 20° (NNE) 2,045 9.9 -25.5°
Exits shadow 04:50:48 19° 169° (SSE) 1,154 8.6 -24.3°
Drops below altitude 10° 04:51:53 10° 176° (S) 1,584 9.3 -24.2°
Sets 04:53:58 0° 182° (S) 2,458 10.2 -23.8°
